Hourly Data Report for August 04, 2019

QUALICUM BEACH AIRPORT
BRITISH COLUMBIA
Current Station Operator: ECCC - MSC

49°20'14.000" N
124°23'38.000" W
58.20 m
1026562
71766
VOQ

Download Data

Hourly Data (August 2019)
Hourly Data Report for August 4, 2019
TIME
LST
Temp Definition
°C
Dew Point Definition
°C
Rel Hum Definition
%
Precip. Amount Definition
mm

Wind Dir Definition
10's deg

Wind Spd Definition
km/h
Visibility Definition
km
Stn Press Definition
kPa
Hmdx Definition


Wind Chill Definition


Weather Definition


00:00 14.7 10.1 74 0.0 25 3   101.18     LegendNANA
01:00 14.3 10.7 79 0.0 26 3   101.19     LegendNANA
02:00 15.1 10.4 73 0.0 29 5   101.19     LegendNANA
03:00 14.9 10.4 74 0.0 28 6   101.20     LegendNANA
04:00 16.4 10.6 68 0.0 30 8   101.19     LegendNANA
05:00 12.6 10.0 84 0.0 25 3   101.22     LegendNANA
06:00 14.4 10.5 78 0.0 28 5   101.24     LegendNANA
07:00 18.0 11.2 65 0.0 30 9   101.22     LegendNANA
08:00 18.9 11.5 62 0.0 31 12   101.22     LegendNANA
09:00 20.0 11.3 57 0.0 29 13   101.22     LegendNANA
10:00 20.5 11.7 57 0.0 33 11   101.21     LegendNANA
11:00 21.5 11.8 54 0.0 29 9   101.17     LegendNANA
12:00 22.5 11.8 51 0.0 31 10   101.12 25   LegendNANA
13:00 23.5 11.1 46 0.0 32 15   101.08 25   LegendNANA
14:00 25.5 11.3 41 0.0 33 14   101.02 27   LegendNANA
15:00 26.0 11.7 41 0.0 34 11   100.97 28   LegendNANA
16:00 26.9 9.5 34 0.0 33 9   100.91 28   LegendNANA
17:00 27.6 8.6 30 0.0 30 10   100.87 28   LegendNANA
18:00 27.8 8.9 31 0.0 32 9   100.83 29   LegendNANA
19:00 25.8 11.9 42 0.0 30 2   100.81 28   LegendNANA
20:00 21.5 12.1 55 0.0 25 4   100.82     LegendNANA
21:00 19.6 12.6 64 0.0 23 6   100.83     LegendNANA
22:00 19.2 11.0 59 0.0 24 8   100.82     LegendNANA
23:00 17.4 10.2 63 0.0 27 2   100.81     LegendNANA

Notes on Data Quality.

Legend

  • E = Estimated
  • M = Missing
  • NA = Not Available*
  • [empty] = Indicates an unobserved value
Date modified: